Location: La Comballaz
(46.3780°N, 7.0817°E)
Time: 04:27:48
(UTC+00:00)

X-37B - Pass Details

Date: 07 December 2021
Orbit: 334 x 337 km, 45.0° (Epoch: 11 January)

Event Time Altitude Azimuth Distance (km) Brightness Sun altitude
Rises 17:13:24 0° 216° (SW) 2,094 5.2 -14.6°
Reaches altitude 10° 17:15:49 10° 194° (SSW) 1,261 3.6 -15.0°
Maximum altitude 17:17:44 17° 151° (SSE) 957 2.4 -15.3°
Enters shadow 17:18:04 16° 142° (SE) 968 2.4 -15.3°
